User: anonymous   Login
Location: Unnamed Road
(35.9029°N, 51.9749°E)
Time: 10:42:05
(UTC+04:30)
Language:

Vanguard 2 Rocket - Orbit

View from above orbital plane
View from above orbital plane
View from above satellite
View from above satellite

Ground track
Ground track

The orbit data is extracted from the following two-line orbital elements,

1 00012U 59001B   21134.51477318 -.00000085  00000-0 -47964-4 0  9994
2 00012  32.8999 272.5693 1666392  16.5941 348.3077 11.44398068317915
Epoch (UTC): 14 May 2021 12:21:16
Eccentricity: 0.1666392
inclination: 32.8999°
perigee height: 554 km
apogee height: 3326 km
right ascension of ascending node: 272.5693°
argument of perigee: 16.5941°
revolutions per day: 11.44398068
mean anomaly at epoch: 348.3077°
orbit number at epoch: 31791

The dashed part of the orbit path shows where the satellite is in the earth's shadow,  

DLR